Theta_e
305 305 305 306 306 307 308 309 310 310 309 309 309 309 309 310 309 310 310 318 320 320 317 324 330 335 341 346 345 346 349 359 357 357 358 349 354 355 354 353 352 354 351 350 349
304 305 305 306 306 307 309 308 309 310 309 309 309 309 309 311 310 315 318 318 319 320 315 328 331 335 339 342 345 347 351 359 352 354 349 346 351 357 353 352 352 354 352 351 349
304 304 305 305 306 307 309 309 308 309 310 310 310 309 310 312 322 326 322 319 315 318 318 333 333 336 338 340 343 346 348 350 350 352 349 356 352 347 353 353 351 354 352 350 349
304 304 304 305 306 307 309 310 309 309 309 310 309 309 310 313 330 325 323 317 313 318 319 334 335 336 339 341 341 346 345 344 347 349 352 352 355 355 353 352 352 353 351 350 349
304 304 305 305 305 306 309 310 310 309 310 310 309 309 312 325 323 320 319 319 313 318 325 337 336 337 339 339 340 342 344 344 345 344 351 351 352 353 350 344 352 353 351 350 349
304 304 305 305 305 306 309 311 310 310 310 310 309 311 313 326 319 320 322 328 323 319 327 337 336 337 337 336 336 339 340 342 343 342 350 349 353 352 353 350 353 352 350 350 349
305 307 308 307 305 306 310 311 310 309 310 309 312 313 327 324 319 319 321 327 326 324 325 336 335 335 335 334 332 332 336 336 339 341 351 348 352 353 353 353 351 352 350 349 350
309 309 309 308 305 307 310 310 309 309 312 313 314 323 330 318 317 317 321 326 327 328 324 331 333 332 333 332 329 330 332 335 335 339 344 350 353 354 353 353 352 352 351 351 350
310 309 309 308 305 308 311 312 310 309 312 313 320 326 328 317 317 317 320 325 328 326 328 332 333 332 329 333 330 329 328 331 334 337 340 349 353 355 353 350 353 351 352 351 350
309 309 308 308 306 310 312 314 313 311 314 316 320 323 321 318 316 317 317 323 327 329 331 330 329 329 330 331 331 329 328 328 332 335 338 344 348 349 342 343 347 352 350 351 350
309 308 307 307 306 312 315 317 322 325 320 320 320 320 317 317 316 318 319 323 327 330 330 330 331 331 331 329 330 328 328 327 327 331 334 340 347 347 343 342 347 351 350 350 350
307 306 306 306 307 314 316 317 316 316 317 317 316 315 315 316 318 319 322 326 327 330 329 328 331 331 328 329 329 330 329 328 329 329 332 335 341 347 345 345 344 345 350 349 350
305 305 306 305 309 315 316 316 316 316 317 319 316 316 316 316 318 318 321 325 327 326 329 329 327 327 328 328 329 329 329 328 328 329 329 332 338 351 346 346 349 346 351 348 350
306 305 305 306 314 316 318 316 316 315 319 320 316 316 315 315 317 316 316 320 325 326 326 329 329 329 327 327 328 328 328 327 328 328 328 330 333 351 356 355 351 352 352 350 349
307 307 305 304 314 318 317 316 315 315 320 319 317 315 316 316 317 316 316 317 320 323 325 326 325 327 328 328 327 328 328 328 327 328 328 328 331 332 347 351 348 345 351 350 348
310 310 307 317 316 317 315 316 316 318 319 318 317 316 316 316 317 317 316 316 319 320 322 323 323 326 326 326 327 327 326 327 328 327 329 327 329 334 340 355 346 342 346 349 349
311 310 307 311 317 316 315 318 320 320 321 318 318 317 317 318 318 317 317 318 318 319 319 319 321 323 326 327 326 327 327 327 329 329 328 327 327 332 333 349 349 344 346 350 351
312 311 315 314 315 315 316 320 323 323 320 318 317 317 317 319 318 318 317 318 319 319 319 320 322 320 322 325 328 326 327 329 330 329 328 328 330 330 330 331 347 343 347 344 349
313 316 316 317 316 315 318 323 324 321 319 319 319 319 319 319 317 318 318 318 319 320 320 320 319 321 323 322 325 327 328 327 328 329 330 330 330 330 331 330 332 345 343 345 345
313 318 317 316 317 316 320 322 321 319 318 319 320 320 320 321 319 318 318 319 319 319 319 319 319 320 321 323 323 324 325 327 329 331 333 331 334 332 333 332 331 334 344 347 347
317 320 318 316 317 319 322 323 321 318 316 318 319 319 320 320 320 319 319 319 318 318 317 317 317 318 319 322 322 324 326 326 328 330 331 332 332 334 336 333 332 331 334 346 345
320 321 317 316 320 321 322 318 315 317 317 317 317 317 318 318 318 318 319 319 317 317 317 318 318 318 318 320 322 323 324 324 331 332 332 332 332 334 336 333 331 330 330 338 344
321 320 317 318 321 321 318 317 315 316 316 316 316 317 316 316 317 317 317 316 316 316 316 317 318 319 318 318 319 318 319 322 323 326 334 332 331 332 334 333 331 330 330 332 340
320 321 319 317 316 318 318 316 316 313 314 313 314 314 315 316 316 315 315 315 314 315 315 314 316 318 320 320 319 320 318 320 321 325 326 331 331 332 334 336 336 333 331 331 334
318 317 316 318 316 316 317 316 316 316 313 313 315 313 313 315 314 314 314 315 314 315 314 315 316 315 316 318 318 318 318 318 320 323 326 326 331 332 332 333 335 334 335 336 335
317 318 315 315 315 315 314 314 313 313 313 314 312 312 312 313 313 314 313 313 314 314 316 316 317 316 316 317 317 318 318 317 318 320 323 326 327 329 329 329 332 333 335 341 341
315 316 317 314 315 316 314 313 313 311 313 312 311 312 312 312 311 311 311 311 313 314 315 316 318 318 318 315 317 318 318 317 317 318 320 322 324 326 324 329 330 331 330 332 340
Wind_Speed
19 19 20 21 21 21 20 16 13 11 11 12 13 14 12 11 10 9 12 9 15 10 16 10 15 18 19 19 20 21 8 8 5 4 4 26 7 21 17 20 12 8 25 34 40
20 20 21 21 22 21 19 16 13 12 11 12 14 13 11 11 12 15 12 15 18 16 20 17 19 20 22 22 21 17 9 7 5 10 7 5 17 17 15 20 10 13 29 37 38
21 22 21 21 22 21 19 17 15 14 14 13 12 11 10 12 7 3 18 18 17 19 21 16 16 21 21 20 22 22 14 15 14 14 28 19 27 18 13 16 16 28 32 40 39
22 22 22 22 22 21 20 18 17 16 16 13 11 8 9 5 2 4 9 11 17 20 21 18 21 22 19 20 20 20 21 20 12 8 2 7 14 13 21 9 11 24 31 39 39
22 22 23 22 22 21 19 18 18 16 16 12 9 8 6 6 7 4 7 6 14 21 21 19 25 22 18 19 22 19 17 23 9 7 12 5 10 12 12 16 18 25 32 38 38
21 22 23 23 23 22 19 18 16 15 13 10 6 8 6 11 1 2 2 8 11 22 20 21 21 20 18 20 18 18 21 23 15 14 7 10 11 21 15 36 23 29 30 33 34
23 22 23 23 23 22 19 17 16 10 11 9 6 4 10 11 2 5 5 7 14 19 21 19 20 19 19 15 19 18 20 14 19 20 12 9 5 7 25 33 32 28 29 31 33
24 24 23 22 21 20 17 17 11 5 4 3 2 2 8 5 6 4 5 8 10 19 21 16 19 17 20 15 22 14 19 18 17 18 19 19 13 13 18 6 26 29 30 34 35
24 24 23 22 18 15 14 10 8 2 1 1 1 4 8 3 2 4 6 9 11 14 17 15 17 20 14 16 14 16 16 22 21 21 20 16 5 8 9 9 25 27 32 34 36
24 24 23 20 15 11 9 8 4 2 2 3 9 9 10 5 1 3 5 7 13 17 12 14 15 14 14 15 16 16 18 19 18 18 20 20 11 12 21 18 29 30 27 33 38
26 24 22 18 11 7 6 7 4 3 8 14 3 10 1 1 2 3 5 9 14 14 14 21 12 16 19 21 21 21 19 18 17 20 20 21 14 15 19 17 15 19 29 33 38
26 23 20 15 7 1 6 7 5 6 10 12 10 9 4 5 6 4 7 11 13 13 16 13 20 18 19 21 21 23 21 20 15 19 20 17 15 17 10 6 28 37 31 32 35
25 21 17 10 2 2 1 5 8 6 7 15 11 11 5 7 12 9 7 14 11 16 18 20 15 22 21 19 20 19 21 19 17 12 20 18 17 19 14 22 24 48 34 33 36
24 20 15 4 1 4 3 7 8 4 5 14 11 6 6 7 7 4 5 9 11 16 18 18 21 22 20 22 19 20 19 20 20 15 14 14 14 21 25 25 20 20 34 35 35
21 19 9 4 5 7 5 8 6 3 5 12 10 4 3 13 8 9 4 9 13 13 9 15 20 19 23 16 20 20 19 16 18 18 19 22 16 17 23 21 10 21 29 35 35
21 16 1 2 4 3 8 8 5 6 5 6 5 7 9 9 7 4 6 9 8 9 14 15 21 16 18 20 17 16 20 18 16 16 16 21 19 15 16 21 21 17 38 32 37
20 10 1 4 4 8 10 7 6 9 9 8 5 4 9 7 7 5 9 12 9 10 14 16 18 18 18 14 20 19 15 12 15 15 17 21 19 15 16 24 27 26 41 34 39
17 5 4 1 7 9 8 9 8 6 13 7 2 1 6 8 5 9 5 10 11 13 12 15 13 20 18 20 17 22 20 15 19 15 18 21 21 19 21 27 40 43 33 28 35
9 2 6 4 9 6 9 9 6 12 16 9 9 8 10 10 4 12 6 13 16 13 9 11 18 20 8 19 17 22 20 22 24 22 17 17 17 25 20 23 21 32 38 24 48
8 2 2 9 7 5 8 10 7 14 10 8 8 9 11 11 9 5 8 8 5 8 8 10 17 20 18 13 13 18 20 20 16 22 23 19 23 15 21 19 20 20 31 42 37
5 6 3 8 2 9 7 5 9 9 10 9 11 11 12 13 14 13 9 10 5 10 1 10 13 22 20 17 18 16 17 21 15 16 17 17 16 17 21 23 19 21 26 41 46
7 3 11 6 9 2 9 7 3 9 6 5 4 5 6 10 13 15 14 14 15 11 14 10 12 16 19 23 15 16 18 22 14 19 16 18 17 12 17 23 18 18 26 24 47
9 5 10 10 4 5 4 6 8 10 9 11 8 9 10 10 8 8 11 14 14 10 6 11 12 11 17 18 22 15 23 23 22 21 19 16 19 18 13 7 22 20 22 22 22
8 2 8 12 13 10 3 7 5 8 10 8 6 9 7 10 8 7 9 7 4 6 11 12 13 16 15 15 15 14 20 20 24 16 18 19 19 20 12 21 11 9 12 18 17
8 8 6 8 12 10 11 10 10 8 11 8 2 5 6 6 12 12 10 10 13 9 9 8 16 19 22 27 20 21 19 15 22 21 21 19 21 15 20 18 22 28 4 11 8
10 6 10 9 5 6 5 6 7 9 5 6 6 10 9 4 8 15 14 13 9 11 7 9 10 18 20 22 21 23 21 20 22 29 22 23 20 17 23 27 26 23 35 13 19
8 5 4 4 7 5 6 8 6 4 7 2 8 8 9 10 12 17 18 19 20 11 13 6 5 8 17 18 20 21 24 19 18 18 13 18 20 17 8 14 18 23 27 26 14
Wind_Direction
355 352 348 346 346 347 345 344 335 320 313 312 319 324 319 315 318 243 232 217 229 215 198 204 204 206 212 231 229 243 277 294 311 61 318 268 184 139 150 124 139 134 144 151 152
351 349 346 345 343 344 343 341 339 330 315 309 314 320 315 314 303 249 230 225 237 217 192 194 202 204 215 227 233 247 260 328 5 121 229 263 270 23 146 129 142 132 136 151 157
346 345 344 343 341 339 338 333 328 323 317 310 309 314 313 317 316 268 224 238 235 212 193 204 205 203 219 223 229 235 246 228 278 270 179 197 244 149 173 147 161 134 148 157 159
341 340 340 339 339 336 333 328 322 315 311 308 303 296 308 292 332 193 262 255 222 197 198 227 212 208 222 227 234 240 257 237 264 310 331 359 149 322 106 122 166 149 158 161 157
339 336 334 334 335 334 331 326 319 315 310 306 295 293 292 247 254 331 342 214 204 194 204 218 211 211 221 233 233 250 246 278 200 243 253 222 106 117 149 167 173 150 160 164 163
340 336 333 331 331 333 330 326 320 313 310 309 291 283 256 248 233 279 237 225 201 194 204 220 211 216 228 243 251 241 237 258 260 252 205 268 167 163 175 149 159 150 161 169 168
340 338 335 332 330 331 329 326 321 311 309 299 291 235 253 274 282 273 240 212 200 201 203 218 216 226 231 242 261 271 265 267 251 264 197 209 246 350 139 156 141 156 164 171 177
338 336 334 333 330 329 328 328 322 321 340 345 189 271 278 286 242 252 206 202 201 207 203 214 220 235 237 251 265 263 250 257 246 230 247 205 216 71 112 177 145 162 167 175 178
336 333 332 330 330 325 329 342 330 332 300 195 225 269 248 327 185 213 201 200 196 190 210 223 218 237 241 252 255 229 242 236 250 220 231 207 158 108 173 360 156 168 172 174 177
334 331 328 327 328 325 329 316 325 281 324 256 267 259 234 197 108 219 207 210 193 189 204 222 215 228 228 230 227 233 227 244 235 243 197 232 163 131 136 244 279 163 180 177 175
331 329 325 322 324 346 4 336 310 215 216 256 260 259 162 259 248 245 197 191 189 188 208 205 213 217 226 231 238 265 273 234 239 231 234 206 163 149 171 212 227 223 179 186 179
329 328 324 320 309 97 353 332 9 322 297 235 241 250 257 260 217 162 183 198 190 205 212 207 227 227 232 237 232 248 266 274 260 246 219 210 190 160 138 332 255 257 176 192 185
332 330 326 319 291 121 342 341 327 316 266 241 211 235 205 221 250 129 210 220 220 223 216 227 225 217 238 239 244 232 249 260 270 275 255 224 203 156 189 185 245 251 176 190 186
334 333 329 309 300 327 231 329 328 291 268 157 183 213 213 232 241 186 249 277 234 248 221 236 234 261 209 239 240 244 243 251 268 269 261 213 252 190 185 183 204 219 174 185 191
337 335 328 280 288 327 303 324 310 244 271 156 117 130 188 223 107 180 218 257 258 250 240 249 238 233 253 239 231 252 255 256 250 265 267 262 223 244 189 185 153 253 226 186 187
336 334 337 43 306 327 319 307 278 235 232 131 123 178 192 209 218 131 222 220 302 290 283 273 277 254 244 254 248 250 251 264 262 241 249 249 254 232 216 179 175 168 257 194 185
336 339 349 204 299 302 313 287 229 247 152 141 199 163 232 204 188 223 241 213 236 223 234 236 246 262 264 258 241 230 242 232 239 241 240 234 243 242 254 177 177 189 216 207 183
337 346 44 241 312 303 302 253 256 333 73 74 336 350 276 308 210 241 230 267 260 268 289 286 253 213 223 237 246 232 222 230 229 233 239 231 238 230 247 264 191 187 202 205 233
335 18 300 328 303 296 266 233 10 11 13 16 334 261 263 244 181 310 293 290 282 345 253 279 261 276 284 216 219 247 231 234 255 257 249 249 219 243 240 241 246 173 173 201 249
354 291 192 335 301 267 246 262 87 37 8 340 315 318 309 305 179 220 253 315 317 39 336 306 307 292 294 220 243 231 254 228 231 250 258 255 249 234 215 230 235 239 187 179 206
335 238 40 351 294 244 262 60 40 42 11 352 342 319 319 313 312 306 298 295 13 297 174 293 286 282 292 276 217 221 245 257 271 237 253 258 259 259 207 204 208 227 240 180 195
285 306 353 338 258 277 44 19 341 23 19 343 298 297 305 319 300 296 287 311 22 328 310 279 288 285 269 272 262 247 258 242 246 240 265 250 253 24 341 187 194 216 229 220 191
300 34 15 331 319 49 88 94 49 9 16 13 334 14 340 315 316 294 304 317 5 356 352 313 263 271 259 272 269 231 234 254 249 250 251 234 246 266 332 213 185 200 237 231 219
300 335 65 44 22 354 342 58 51 60 62 351 326 321 339 310 264 263 279 283 358 291 338 315 274 275 276 257 341 290 239 251 249 243 243 249 244 243 14 0 25 8 219 239 227
357 47 353 6 32 39 11 7 41 6 1 8 202 14 359 324 331 299 328 323 301 304 295 253 263 266 273 286 294 285 285 286 257 250 248 244 244 254 24 348 329 360 331 359 305
358 349 79 52 60 60 60 42 20 357 334 6 347 349 335 312 300 309 300 298 302 293 225 302 283 272 259 271 286 274 264 263 278 242 248 259 285 299 71 311 299 344 350 33 12
43 28 342 116 27 30 36 17 354 340 299 14 346 341 315 338 314 298 292 281 264 249 267 247 261 281 260 267 282 260 254 245 261 272 272 260 269 292 316 275 320 310 331 328 350